This is the latest recevied weather packets stored in our database for station/object KK7MLS-13. If no packets are shown the sender has not sent any weather packets the latest 10 day(s).
| Time | Temp. | Humidity | Pressure | Rain* | Wind** | Luminosity | Snow |
|---|---|---|---|---|---|---|---|
| 1777390292 | 10.56° C | 81% | 1023.7 hPa | 0 mm | - | 102 W/m² | - |
| 1777389988 | 10.56° C | 81% | 1023.8 hPa | 0 mm | - | 100 W/m² | - |
| 1777389685 | 10° C | 82% | 1023.5 hPa | 0 mm | - | 75 W/m² | - |
| 1777389382 | 10° C | 82% | 1023.5 hPa | 0 mm | - | 60 W/m² | - |
| 1777389080 | 10° C | 81% | 1023.7 hPa | 0 mm | - | 53 W/m² | - |
| 1777388777 | 10° C | 82% | 1023.7 hPa | 0 mm | - | 61 W/m² | - |
| 1777388474 | 10° C | 83% | 1023.6 hPa | 0 mm | - | 56 W/m² | - |
| 1777388174 | 10° C | 82% | 1023.5 hPa | 0 mm | - | 53 W/m² | - |
| 1777387870 | 10° C | 83% | 1023.4 hPa | 0 mm | - | 46 W/m² | - |
| 1777387567 | 9.44° C | 84% | 1023.4 hPa | 0 mm | - | 54 W/m² | - |
| 1777387262 | 9.44° C | 85% | 1023.4 hPa | 0 mm | - | 50 W/m² | - |
| 1777386957 | 9.44° C | 85% | 1023.3 hPa | 0 mm | - | 33 W/m² | - |
| 1777386655 | 9.44° C | 85% | 1023.3 hPa | 0 mm | - | 32 W/m² | - |
| 1777386352 | 9.44° C | 85% | 1023.1 hPa | 0 mm | - | 24 W/m² | - |
| 1777386049 | 9.44° C | 85% | 1023.1 hPa | 0 mm | - | 16 W/m² | - |
| 1777385745 | 9.44° C | 86% | 1023.1 hPa | 0 mm | - | 16 W/m² | - |
| 1777385443 | 9.44° C | 86% | 1023.2 hPa | 0 mm | - | 15 W/m² | - |
| 1777385138 | 9.44° C | 86% | 1023 hPa | 0 mm | - | 15 W/m² | - |
| 1777384835 | 8.89° C | 86% | 1022.7 hPa | 0 mm | - | 15 W/m² | - |
| 1777384532 | 8.89° C | 87% | 1023.1 hPa | 0 mm | - | 14 W/m² | - |
| 1777384227 | 8.89° C | 86% | 1022.9 hPa | 0 mm | - | 6 W/m² | - |
| 1777383923 | 8.89° C | 86% | 1022.7 hPa | 0 mm | - | 6 W/m² | - |
| 1777383619 | 8.89° C | 88% | 1022.6 hPa | 0 mm | - | 9 W/m² | - |
| 1777383315 | 8.89° C | 89% | 1022.6 hPa | 0 mm | - | 7 W/m² | - |
| 1777383012 | 8.89° C | 89% | 1022.7 hPa | 0 mm | - | 6 W/m² | - |
* Rain latest hour (hover to see other rain measurements)
** Current wind speed in m/s (hover to see current wind gust speed)